Wind_Speed
87 83 83 86 86 85 84 82 81 80 82 92 82 71 70 73 73 70 71 73 70 68 71 73 72 66 60 60 56 59 61 63 63 60 58 58 57 57 55 51 44 46 48 49
89 85 89 92 93 93 91 90 89 84 87 97 85 78 73 73 73 74 73 78 75 77 76 76 75 74 68 64 63 60 64 65 64 60 61 60 57 58 58 57 56 52 50 50
94 92 97 95 94 98 94 98 95 91 94 96 96 87 79 78 79 72 75 79 85 86 81 78 79 76 75 72 68 65 66 64 64 61 59 58 58 58 58 58 56 55 53 53
98 99 98 99 99 103 95 102 102 100 100 98 106 102 83 87 82 82 79 80 89 97 94 86 84 79 80 77 72 69 67 67 65 63 62 60 60 63 64 60 57 57 57 59
101 104 103 101 103 110 104 106 109 107 108 111 98 117 84 88 90 85 88 90 95 101 103 93 86 84 83 82 80 75 71 68 67 66 65 65 65 62 59 57 60 62 63 62
104 108 108 107 109 113 114 114 116 117 116 117 101 115 110 89 95 93 95 97 103 104 102 97 86 80 84 85 80 75 72 62 64 64 66 67 63 61 63 62 62 63 61 54
113 114 117 120 119 116 121 119 120 125 125 126 116 118 109 100 101 98 100 103 105 108 109 103 93 84 82 80 78 77 73 65 67 62 65 67 65 63 64 62 63 64 63 65
115 116 120 122 123 123 125 129 129 127 123 122 122 117 102 102 94 95 96 102 104 105 107 104 97 90 83 83 81 77 76 75 73 65 68 68 68 66 65 65 65 67 68 66
109 103 102 109 110 112 112 118 123 124 123 124 114 108 101 92 93 93 89 91 94 97 97 92 89 81 77 75 73 71 73 73 71 67 67 70 70 68 65 67 69 70 70 72
107 99 97 99 108 114 118 118 118 119 120 118 112 103 99 100 95 95 92 95 97 97 87 85 87 80 73 71 67 58 62 63 65 67 69 71 69 68 68 67 66 69 72 72
105 101 94 100 108 114 120 119 115 112 112 115 110 98 96 91 90 87 88 91 90 90 85 83 79 75 69 64 58 55 56 60 59 62 63 62 64 64 68 69 69 69 70 70
106 103 95 94 101 108 113 112 114 111 106 109 109 96 91 94 91 84 89 86 80 82 84 80 74 66 64 66 66 70 62 65 58 58 58 66 76 70 70 68 70 70 71 71
103 105 101 93 96 103 108 109 109 112 111 106 107 92 88 94 93 86 83 81 71 75 82 83 75 69 63 63 71 67 49 55 61 61 68 65 61 62 67 69 69 72 70 70
101 100 101 97 99 98 98 100 100 102 102 99 96 90 83 87 87 84 81 77 69 68 75 81 72 71 69 57 64 62 66 71 70 66 67 73 67 69 69 68 64 68 70 69
98 98 98 92 93 93 88 84 86 89 90 92 86 85 81 81 78 80 78 73 66 62 67 75 75 72 71 70 63 65 71 76 75 68 72 72 70 69 75 71 72 67 65 69
92 92 91 82 87 86 77 72 71 77 87 93 84 70 80 72 69 73 74 73 67 60 60 66 74 75 72 67 65 69 69 72 74 76 80 82 82 72 76 73 73 67 66 74
85 85 89 73 85 84 72 75 76 81 81 80 82 79 75 70 62 63 70 69 66 62 55 59 72 72 69 69 63 64 66 71 74 72 78 79 78 77 77 74 63 60 67 68
78 81 84 80 86 82 80 83 82 80 81 84 82 82 77 65 62 59 64 68 66 62 59 57 66 72 74 69 66 66 68 68 70 69 71 70 71 75 70 68 69 68 71 72
80 83 85 83 90 86 83 80 80 80 77 83 82 77 77 73 65 61 62 64 65 63 64 58 60 71 73 76 72 74 72 69 69 63 61 67 56 66 69 71 76 78 76 76
85 89 90 89 85 76 76 74 73 80 72 77 78 77 73 67 64 62 65 62 63 62 65 59 57 63 69 76 75 73 73 70 65 60 60 59 67 70 73 76 79 78 80 79
89 87 82 83 78 63 59 65 73 74 72 74 69 67 62 59 60 60 64 66 62 59 64 61 56 55 59 68 70 72 70 69 67 66 67 66 70 77 84 79 85 84 84 85
78 76 74 73 67 53 59 63 71 65 65 65 55 53 49 50 55 59 61 65 64 59 60 60 58 58 53 56 61 65 66 67 70 69 69 76 80 84 89 81 83 84 85 82
64 70 69 71 62 61 57 64 62 60 58 61 48 42 42 46 50 54 60 62 63 57 55 55 57 55 53 49 48 48 53 58 62 66 68 69 73 78 77 84 87 85 89 93
63 68 61 59 57 60 62 56 54 56 52 56 44 41 38 42 46 48 57 62 63 56 51 53 53 51 49 49 45 47 38 54 60 58 60 67 71 74 76 81 85 89 93 97
58 55 56 55 54 52 59 60 54 47 44 50 45 40 42 38 44 46 55 61 62 54 50 49 49 45 47 46 50 52 55 59 57 60 64 76 81 82 82 87 91 93 93 91
50 50 51 51 50 46 55 57 51 46 47 42 36 45 45 43 45 49 54 59 60 52 47 45 44 45 43 45 42 47 50 53 62 57 65 72 70 65 74 80 85 87 88 88
Wind_Direction
280 283 285 284 283 284 283 284 287 287 284 283 288 288 290 292 294 292 290 291 294 294 294 292 290 289 289 291 291 291 292 294 295 295 293 293 291 292 293 291 289 293 296 296
280 283 284 284 285 285 285 286 285 285 282 282 285 287 288 287 287 290 291 292 293 290 290 288 287 288 288 288 287 287 287 290 290 289 290 290 290 288 289 289 291 293 294 295
282 284 283 283 283 282 283 283 281 280 278 281 282 282 285 287 286 285 288 288 290 287 285 283 281 284 287 288 287 287 285 286 286 286 285 286 285 284 285 287 287 289 288 289
282 282 281 281 281 280 281 280 280 279 277 277 280 283 282 282 284 283 283 282 283 283 283 282 283 283 283 284 283 282 282 282 281 281 281 280 280 282 286 287 285 285 284 286
279 278 277 277 278 278 280 277 277 277 277 278 279 282 277 282 282 283 280 280 278 276 279 282 279 281 281 281 282 281 280 280 280 278 276 277 278 281 283 285 285 287 285 285
277 279 277 275 278 276 276 276 276 276 276 275 278 276 279 282 282 279 278 274 274 277 277 277 276 275 276 276 280 278 278 277 273 277 273 278 278 277 278 279 284 285 278 271
276 274 273 273 276 276 274 275 274 275 277 279 278 277 284 281 279 273 272 271 273 275 274 273 272 270 270 271 273 274 273 269 268 269 269 272 272 272 274 278 281 274 276 277
279 280 278 276 277 276 275 276 277 274 275 278 281 281 279 279 275 271 268 266 268 270 269 269 270 269 268 272 276 277 275 270 268 265 267 272 274 272 275 279 275 276 275 278
278 278 278 279 277 277 274 274 274 275 275 276 277 278 279 272 271 268 268 266 265 266 267 269 269 267 267 269 270 272 272 269 268 264 265 269 272 273 277 276 274 274 276 277
278 277 278 278 277 277 277 275 274 276 278 278 280 279 275 271 270 268 267 266 267 265 264 264 263 262 264 267 269 269 272 272 269 265 265 268 268 270 272 272 274 275 275 276
275 273 271 273 275 275 276 275 274 275 277 278 279 277 274 273 272 272 266 262 262 261 258 256 259 261 259 256 259 258 270 271 273 269 267 269 271 272 271 273 276 276 277 277
273 272 273 271 272 272 272 274 277 277 275 276 278 277 275 275 272 268 265 265 263 257 253 254 256 257 257 252 247 253 263 275 275 272 269 267 268 270 271 273 275 275 276 277
277 276 273 271 272 272 273 274 274 274 275 276 276 277 273 273 274 270 267 266 262 256 250 252 252 252 251 251 248 258 254 270 265 267 267 270 271 273 273 276 277 275 275 276
278 278 277 275 272 271 272 274 274 275 276 275 277 274 273 272 273 270 267 264 262 256 250 249 247 248 246 244 247 247 244 241 254 263 272 271 274 275 276 278 273 277 282 280
278 279 278 278 277 276 276 275 276 277 276 275 274 275 273 272 269 268 268 264 260 253 247 247 247 244 245 243 241 242 241 244 249 254 253 266 275 272 273 273 278 280 279 276
281 280 279 280 280 279 278 278 274 273 272 275 269 266 268 262 261 262 264 262 257 252 245 245 246 245 247 244 245 246 248 250 250 253 256 260 263 270 282 277 283 281 276 276
283 282 282 280 278 276 279 275 271 269 270 270 272 268 262 267 263 260 262 262 260 253 244 242 245 247 242 243 242 242 245 245 249 253 254 259 263 267 269 276 277 276 275 279
278 278 279 281 277 278 279 276 274 271 269 269 267 268 269 263 260 255 255 256 256 251 240 235 239 244 249 246 244 242 245 247 251 252 255 260 264 268 268 268 268 271 276 278
281 279 278 280 279 279 279 278 277 275 271 271 271 268 267 264 257 253 252 253 254 252 248 233 233 239 242 245 245 247 250 250 249 244 249 244 250 255 259 267 267 270 275 277
281 281 282 281 279 283 279 279 275 272 273 265 264 265 264 264 262 254 249 247 249 248 248 245 232 234 241 244 246 248 250 253 253 253 250 250 252 257 264 268 271 273 275 278
287 285 285 284 282 282 281 275 268 269 267 268 268 266 263 259 256 250 246 243 243 244 245 246 243 237 238 242 246 248 250 251 252 250 247 248 249 254 262 265 269 272 274 275
284 286 283 281 282 277 272 275 270 268 270 272 269 265 261 255 248 243 242 239 239 239 241 241 243 241 238 241 245 248 250 251 252 253 254 255 256 257 261 266 267 268 275 278
285 281 279 277 282 281 271 272 278 279 275 275 278 273 261 253 248 238 234 234 238 239 237 238 239 240 242 245 247 249 251 254 255 257 260 263 262 262 264 268 268 270 274 278
279 277 283 282 282 275 270 272 268 266 269 272 271 267 258 252 246 236 229 228 232 236 234 234 235 234 235 242 247 248 246 257 254 255 256 260 256 262 263 265 268 271 274 279
280 283 284 285 282 282 277 274 275 276 276 273 259 252 249 238 236 229 225 221 224 228 228 228 230 229 233 235 238 244 245 252 255 254 254 254 259 260 262 266 272 277 282 287
284 285 284 282 281 279 277 282 281 279 275 267 264 254 238 229 226 221 219 214 217 220 222 221 222 223 224 232 239 244 245 246 248 250 251 258 264 272 273 276 279 281 285 286
Height
10827 10834 10834 10828 10828 10831 10833 10833 10833 10832 10819 10787 10821 10840 10839 10832 10832 10833 10828 10822 10818 10815 10808 10806 10808 10814 10820 10818 10818 10805 10797 10792 10789 10788 10787 10786 10782 10777 10774 10776 10772 10763 10764 10760
10820 10827 10813 10810 10810 10808 10814 10813 10812 10823 10803 10769 10803 10821 10828 10825 10821 10815 10815 10803 10804 10800 10797 10792 10790 10789 10799 10803 10803 10802 10789 10783 10778 10777 10775 10773 10772 10768 10764 10759 10756 10752 10746 10743
10805 10807 10796 10796 10793 10784 10798 10786 10787 10796 10781 10773 10776 10799 10814 10812 10809 10811 10799 10789 10775 10772 10779 10776 10772 10775 10777 10781 10784 10783 10781 10773 10765 10764 10763 10761 10760 10756 10752 10750 10745 10741 10736 10731
10793 10787 10779 10773 10772 10757 10783 10757 10760 10763 10762 10768 10742 10761 10806 10790 10793 10791 10790 10781 10760 10742 10743 10755 10758 10762 10759 10758 10762 10762 10762 10759 10754 10750 10748 10747 10747 10744 10741 10739 10734 10729 10725 10719
10778 10764 10758 10759 10750 10734 10754 10742 10733 10735 10734 10728 10770 10708 10787 10776 10774 10772 10763 10757 10741 10719 10713 10737 10744 10746 10744 10741 10741 10743 10744 10744 10740 10737 10736 10734 10734 10732 10729 10726 10722 10719 10713 10711
10755 10739 10733 10731 10732 10716 10711 10716 10706 10702 10704 10695 10742 10704 10720 10770 10752 10745 10734 10723 10708 10707 10703 10708 10726 10730 10722 10721 10723 10725 10725 10725 10723 10720 10719 10718 10719 10717 10715 10713 10710 10705 10699 10697
10719 10717 10709 10703 10706 10695 10681 10685 10685 10671 10668 10661 10691 10683 10714 10726 10713 10706 10704 10694 10688 10683 10677 10676 10700 10710 10702 10703 10705 10706 10706 10706 10705 10704 10701 10698 10701 10702 10700 10701 10696 10691 10683 10680
10687 10685 10675 10669 10669 10673 10661 10649 10644 10641 10647 10648 10649 10665 10692 10678 10681 10668 10665 10664 10664 10661 10653 10655 10666 10683 10682 10682 10684 10687 10687 10687 10686 10686 10683 10682 10682 10685 10686 10684 10680 10672 10668 10664
10652 10663 10652 10633 10630 10623 10633 10627 10614 10606 10614 10619 10641 10640 10652 10646 10642 10636 10642 10639 10639 10636 10639 10644 10651 10657 10664 10665 10666 10666 10665 10669 10670 10669 10669 10667 10665 10667 10670 10664 10661 10658 10653 10649
10623 10638 10626 10614 10597 10588 10587 10594 10598 10588 10583 10588 10603 10616 10620 10603 10616 10615 10616 10617 10616 10613 10625 10630 10631 10644 10648 10646 10647 10647 10645 10650 10655 10654 10655 10652 10650 10651 10649 10646 10644 10641 10637 10633
10597 10602 10614 10594 10574 10563 10549 10554 10564 10563 10565 10557 10569 10591 10578 10589 10588 10592 10586 10583 10593 10600 10607 10606 10615 10626 10633 10629 10630 10633 10634 10633 10634 10637 10637 10639 10634 10631 10631 10629 10627 10624 10620 10616
10566 10574 10580 10567 10555 10543 10533 10533 10524 10531 10541 10535 10535 10564 10557 10552 10556 10562 10550 10560 10579 10584 10585 10589 10598 10609 10617 10618 10618 10621 10627 10620 10615 10617 10619 10617 10616 10616 10615 10612 10610 10607 10604 10601
10532 10535 10542 10541 10531 10523 10516 10510 10507 10501 10505 10514 10512 10538 10531 10524 10524 10532 10534 10538 10556 10561 10566 10569 10581 10591 10595 10601 10600 10606 10611 10602 10602 10598 10599 10598 10598 10597 10596 10595 10593 10591 10587 10582
10499 10506 10501 10509 10502 10499 10496 10491 10485 10479 10480 10485 10494 10504 10505 10502 10499 10502 10508 10517 10532 10539 10542 10543 10556 10566 10576 10580 10583 10588 10590 10588 10586 10585 10584 10576 10581 10579 10580 10578 10576 10573 10570 10564
10479 10479 10470 10477 10473 10468 10473 10473 10462 10459 10460 10456 10471 10472 10475 10476 10480 10475 10482 10490 10506 10515 10520 10525 10532 10542 10551 10562 10564 10567 10566 10568 10568 10571 10569 10562 10562 10561 10560 10559 10558 10557 10553 10545
10457 10454 10446 10459 10444 10439 10449 10449 10443 10440 10429 10425 10441 10455 10442 10453 10456 10453 10457 10464 10478 10493 10500 10505 10510 10525 10532 10539 10551 10552 10551 10551 10552 10552 10551 10547 10547 10546 10541 10541 10541 10539 10533 10526
10436 10428 10416 10441 10410 10411 10432 10420 10420 10411 10411 10412 10411 10418 10421 10434 10443 10441 10439 10444 10455 10469 10481 10489 10492 10500 10513 10519 10526 10529 10530 10533 10533 10534 10532 10533 10532 10531 10529 10529 10526 10520 10514 10511
10416 10405 10394 10401 10388 10394 10405 10396 10393 10393 10391 10386 10392 10390 10397 10413 10419 10422 10423 10425 10432 10444 10456 10469 10477 10483 10487 10499 10506 10510 10512 10514 10516 10518 10517 10517 10517 10515 10513 10510 10506 10500 10497 10493
10386 10378 10373 10376 10364 10371 10377 10374 10367 10364 10373 10367 10361 10371 10376 10384 10395 10403 10405 10410 10416 10426 10435 10447 10456 10461 10469 10476 10485 10489 10493 10497 10498 10499 10497 10498 10494 10490 10489 10489 10486 10482 10479 10475
10361 10353 10349 10346 10347 10355 10349 10351 10346 10329 10350 10337 10336 10342 10351 10363 10374 10383 10383 10391 10398 10410 10414 10427 10437 10445 10450 10456 10464 10472 10476 10478 10481 10483 10481 10479 10475 10475 10473 10470 10467 10465 10459 10457
10335 10327 10326 10318 10319 10341 10326 10321 10307 10307 10313 10312 10318 10322 10333 10343 10349 10356 10361 10369 10380 10392 10397 10408 10420 10428 10435 10441 10448 10454 10459 10464 10466 10463 10464 10462 10459 10457 10454 10454 10445 10444 10440 10434
10314 10305 10298 10292 10299 10315 10304 10296 10283 10289 10290 10289 10300 10304 10313 10318 10322 10331 10339 10348 10359 10373 10381 10392 10403 10411 10421 10428 10434 10441 10446 10448 10448 10448 10448 10446 10444 10440 10437 10434 10428 10423 10418 10415
10299 10280 10278 10271 10285 10281 10285 10277 10275 10276 10278 10272 10282 10291 10297 10298 10301 10311 10318 10329 10342 10356 10368 10378 10388 10398 10406 10413 10421 10428 10432 10431 10432 10431 10430 10426 10422 10421 10417 10414 10409 10404 10398 10394
10273 10259 10267 10264 10264 10254 10245 10251 10255 10253 10258 10255 10262 10268 10277 10281 10286 10294 10301 10310 10325 10341 10355 10365 10376 10387 10394 10402 10409 10413 10416 10410 10414 10414 10412 10405 10402 10399 10397 10393 10390 10384 10377 10373
10254 10255 10247 10245 10243 10242 10231 10227 10233 10238 10245 10242 10244 10249 10256 10263 10268 10277 10283 10294 10310 10327 10342 10353 10365 10376 10383 10391 10390 10394 10397 10396 10397 10394 10391 10383 10381 10381 10379 10375 10372 10367 10360 10354
10243 10238 10232 10227 10225 10229 10215 10212 10216 10220 10221 10225 10231 10236 10236 10246 10252 10260 10269 10285 10298 10318 10331 10343 10356 10366 10371 10375 10380 10381 10381 10379 10374 10374 10372 10370 10369 10367 10365 10360 10356 10350 10342 10336